Date,TemperatureHighF,TemperatureAvgF,TemperatureLowF,DewpointHighF,DewpointAvgF,DewpointLowF,HumidityHigh,HumidityAvg,HumidityLow,PressureMaxIn,PressureMinIn,WindSpeedMaxMPH,WindSpeedAvgMPH,GustSpeedMaxMPH,PrecipitationSumIn
2013-2-1,25.7,20.2,17.4,18.3,12.2,4.9,90,72,44,30.09,29.59,20,5,20,0.00
2013-2-2,22.3,16.5,8.8,15.2,6.1,-2.7,88,64,34,30.10,29.90,16,3,16,0.00
2013-2-3,29.7,15.5,-0.9,9.7,0.2,-14.0,78,52,21,29.91,29.69,12,2,12,0.00
2013-2-4,23.5,18.7,14.2,10.6,3.0,-7.8,67,51,25,29.86,29.74,20,4,20,0.00
2013-2-5,30.6,18.0,4.6,7.1,-6.1,-24.8,70,40,10,29.91,29.77,9,1,9,0.00
2013-2-6,31.1,21.6,4.5,20.9,-1.6,-22.1,78,40,10,30.32,29.78,31,4,31,0.01
2013-2-7,32.0,17.9,1.8,-3.2,-17.1,-26.0,49,24,10,30.40,30.09,12,3,12,0.00
2013-2-8,31.3,26.1,19.6,24.2,8.5,-18.7,88,53,12,30.09,29.73,15,5,15,0.00
2013-2-9,25.9,16.7,9.5,12.9,1.0,-6.9,76,51,25,30.32,29.87,15,5,15,0.00
2013-2-10,42.6,19.8,-1.8,12.5,-8.2,-21.6,63,32,10,30.37,29.80,12,2,12,0.08
2013-2-11,52.3,39.4,26.4,31.1,12.9,-17.5,71,37,10,29.79,29.32,34,7,34,0.09
2013-2-12,37.2,34.1,31.6,27.3,14.2,2.6,82,45,25,29.69,29.44,24,8,24,0.01
2013-2-13,44.6,32.1,18.7,14.9,4.3,-13.7,60,36,10,29.65,29.47,15,2,15,0.00
2013-2-14,43.5,33.1,18.0,30.2,11.2,-10.0,81,46,10,29.67,29.52,10,4,10,0.07
2013-2-15,41.4,36.6,26.6,30.4,9.8,-4.3,81,35,19,29.77,29.52,22,5,22,0.00
2013-2-16,36.7,23.9,12.4,13.5,-5.0,-23.7,63,32,10,29.79,29.65,11,3,11,0.01
2013-2-17,22.1,14.4,11.5,0.4,-9.3,-29.6,55,36,10,29.85,29.61,22,6,22,0.00
2013-2-18,32.2,19.6,11.1,-0.9,-10.9,-24.8,53,29,10,30.02,29.75,10,2,10,0.05
2013-2-19,40.3,29.7,19.8,27.7,5.5,-13.1,69,38,18,29.75,29.31,21,3,21,0.06
2013-2-20,28.4,24.4,20.8,11.5,-3.8,-23.0,59,30,10,29.73,29.48,31,11,31,0.01
2013-2-21,20.8,17.6,13.5,10.4,2.7,-7.1,68,52,32,30.14,29.71,18,5,18,0.00
2013-2-22,37.9,25.5,7.0,13.3,4.2,-6.0,65,42,15,30.14,29.80,17,4,17,0.00
2013-2-23,39.0,35.3,33.1,30.7,21.8,7.7,87,60,32,29.81,29.59,14,3,14,0.08
2013-2-24,34.9,31.5,29.5,24.8,18.5,8.4,78,59,35,29.74,29.58,16,3,16,0.04
2013-2-25,41.7,34.3,27.1,25.3,18.4,6.4,77,55,23,29.98,29.74,12,3,12,0.04
2013-2-26,50.2,34.8,19.0,23.7,8.1,-7.4,77,41,10,29.99,29.62,17,4,17,0.09
2013-2-27,42.8,36.0,32.5,31.6,26.9,20.2,90,70,42,29.65,29.29,24,5,24,0.48
2013-2-28,43.3,36.5,33.3,32.8,26.9,14.3,92,71,32,29.40,29.27,12,3,12,0.09